Aérodrome :
LOGIN :

S'inscrire | Disclaimer

   EN    FR    IT 

 










Légende :    VFR   VFR Marginal   IFR   IFR Intensif   IFR Très Intensif
Visi : 
Plafond : 
>= 8 km
>= 3000ft
5 à 8 km
1000 à 3000 ft
1500m à 5 km
500 à 1000 ft
800 à 1500m
200 à 500 ft
< 800m
< 200 ft
Symboles :   Orages  Brouillard  Fortes neiges  Fortes précipitations  Vent > 20 kt
SIGMETs :   Divers  Orages  Givrage  Turbulence  Onde Orograph.  Cendres Volcan.







- Altitude de l'aérodrome : 538 ft
- Code IATA : TNF
- Voir les cartes d'approche


LFPN - Toussus Le Noble

DERNIER METAR :
  • 241000Z AUTO 11006KT CAVOK 19/12 Q1020 NOSIG

METARs EXPIRÉS :
  • 240930Z AUTO 11004KT 050V140 CAVOK 18/13 Q1021 NOSIG
  • 240900Z AUTO 12005KT CAVOK 17/13 Q1021 NOSIG
  • 240830Z AUTO 11004KT CAVOK 16/12 Q1021 NOSIG
  • 240800Z AUTO 12005KT 9000 NSC 15/12 Q1021 NOSIG
  • 240730Z AUTO 11003KT 8000 NSC 14/11 Q1020 NOSIG

TAF TAF LFPN
Valide du 24 à 09h jusqu'au 24 à 18h UTC


240800Z 2409/2418 11004KT CAVOK
ATIS : +33 1 39 56 54 70
Pas de NOTAMs connus pour ce terrain.



MET'MAP, la Météo Aéronautique d'un coup d'oeil ! - Copyright ORBIFLY Décembre 2007 - Disclaimer

ORBIFLY MET'MAP TEAM :

Programmation & Développement : Alexandra Zaïnal
Conception & Développement : Baudouin d'Aumeries
Co-Programmation & Développement : Marc-Olivier Méhu
Soutien technique & logistique : Manuel Goepfert

Contact : metmap@orbifly.com




SOURCES & CREDITS :

   NOAA